[[{"header":{"parameterUnit":"m.s-1","parameterCategory":1,"la1":30.2991,"la2":30.254,"lo1":-89.0895,"lo2":-89.0444,"dy":0.0017,"dx":0.0017,"nx":28,"ny":28,"refTime":"2023-10-17T21:00:00:Z","depth":0,"parameterNumber":2,"parameterNumberName":"U-component_of_WINDS"},"data":[0,0,0,0,0,0,0,0,0,0,0,0,0,0,0,0,0,0,0,0,0,0,0,0,0,0,0,0,0,0,0,0,0,0,0,0,0,0,0,0,0,0,0,0,0,0,0,0,0,0,0,0,0,0,0,0,0,0,1.0884,1.0885,0,1.0932,1.0932,1.0933,1.0951,1.0951,1.0951,1.0951,1.1003,1.1004,1.1006,0,0,0,0,0,0,0,0,0,0,0,0,0,1.0812,1.0814,1.0884,1.0885,1.0885,1.0932,1.0932,1.0933,1.0951,1.0951,1.0951,1.0951,1.1002,1.1004,1.1006,0,0,0,0,0,0,0,0,0,0,0,0,0,1.085,1.0814,1.0884,1.09,1.0902,1.0932,1.0932,1.0933,1.0951,1.0951,1.0951,1.0951,1.1002,1.1004,1.1006,1.1024,0,0,1.1013,1.1014,0,0,0,0,0,0,0,0,1.0848,1.0853,1.0897,1.0899,1.0901,1.0935,1.0926,1.0964,1.0951,1.0933,1.0951,1.0951,1.0981,1.0985,1.0994,1.1027,1.1029,1.1013,1.1014,1.1015,1.1016,0,0,0,0,0,0,0,1.0845,1.0851,1.0903,1.0898,1.09,1.0906,1.0911,1.0933,1.0957,1.0934,1.0936,1.0941,1.0982,1.0992,1.0995,1.103,1.1013,1.1015,1.1016,1.1017,1.1081,1.1082,0,0,0,0,0,0,1.084,1.0849,1.0901,1.0904,1.0873,1.0907,1.0913,1.0925,1.0957,1.0962,1.0941,1.0942,1.0988,1.0993,1.0997,1.1022,1.1015,1.1018,1.1019,1.1081,1.1082,1.1082,0,0,0,0,0,0,1.0838,1.0844,1.09,1.0877,1.0884,1.0909,1.0922,1.0926,1.0936,1.0962,1.0967,1.0947,1.0988,1.0994,1.1018,1.1024,1.1019,1.1021,1.1081,1.1081,1.1082,1.107,0,0,0,0,0,0,1.0836,1.0843,1.085,1.0877,1.0885,1.0918,1.0922,1.0927,1.0939,1.094,1.0969,1.0973,1.0988,1.1014,1.102,1.1027,1.1022,1.108,1.1081,1.1082,1.107,1.107,1.107,0,0,0,0,0,1.0833,1.0845,1.085,1.0856,1.0894,1.0918,1.0923,1.0939,1.094,1.0947,1.0964,1.0972,1.1022,1.1016,1.1023,1.1031,1.108,1.1081,1.1081,1.107,1.107,1.107,0,0,0,0,0,0,1.0818,1.0848,1.0854,1.0875,1.0894,1.0921,1.093,1.0939,1.0958,1.0959,1.0979,1.0986,1.1008,1.1022,1.1014,1.1051,1.1052,1.1054,1.1041,1.1041,1.1041,1.1037,1.1024,0,0,0,0,0,1.0817,1.0833,1.0859,1.0875,1.0884,1.0905,1.0917,1.0928,1.0948,1.0957,1.0976,1.0996,1.1017,1.103,1.105,1.1072,1.108,1.1081,1.1081,1.1081,1.1083,1.1097,1.1098,1.1084,1.1084,1.1084,0,0,1.0815,1.0834,1.0843,1.0872,1.0888,1.0906,1.0912,1.093,1.0944,1.096,1.0983,1.0998,1.1022,1.1046,1.1057,1.1058,1.1088,1.1082,1.1082,1.1084,1.1098,1.1099,1.11,1.1085,1.1085,1.1085,0,0,1.082,1.0836,1.0851,1.0867,1.089,1.0905,1.0909,1.0935,1.0946,1.0969,1.0982,1.0999,1.1033,1.1051,1.1064,1.1078,1.1087,1.1084,1.1085,1.1098,1.1099,1.11,1.1106,1.1108,1.1086,1.1086,1.1086,0,1.0815,1.0841,1.0858,1.0875,1.0889,1.0904,1.092,1.0935,1.0964,1.0974,1.0975,1.1019,1.1037,1.1065,1.1068,1.1078,1.1084,1.1081,1.1098,1.1099,1.11,1.1106,1.1108,1.1085,1.1085,1.1085,1.1085,0,1.0834,1.0852,1.0861,1.0889,1.0904,1.092,1.0941,1.0954,1.0964,1.0979,1.1004,1.1026,1.1051,1.1059,1.1069,1.1089,1.1089,1.1093,1.1095,1.1101,1.1107,1.1109,1.1085,1.1085,1.1085,1.1085,0,0,1.083,1.0867,1.087,1.0884,1.0912,1.0927,1.0946,1.097,1.0981,1.1002,1.1018,1.1048,1.1053,1.1068,1.108,1.1092,1.1103,1.1096,1.1097,1.1097,1.1128,1.1124,1.1126,1.1109,1.111,1.111,1.1126,0,1.0839,1.0871,1.0888,1.0914,1.0932,1.0947,1.0963,1.0983,1.0998,1.1016,1.1033,1.1054,1.1058,1.1068,1.108,1.1099,1.111,1.1098,1.1126,1.1127,1.112,1.1129,1.1125,1.1139,1.1128,1.1129,1.1129,0,1.0854,1.0874,1.0901,1.0929,1.0937,1.0951,1.0976,1.0992,1.1016,1.1026,1.1044,1.1056,1.1078,1.1078,1.1109,1.1101,1.1114,1.1125,1.1126,1.1129,1.1128,1.1133,1.1144,1.1146,1.1133,1.1132,1.1132,0,1.0849,1.0883,1.0904,1.0915,1.0947,1.0957,1.0971,1.0995,1.1009,1.1031,1.104,1.1065,1.1078,1.1097,1.1117,1.1115,1.1146,1.1148,1.1156,1.1156,1.1162,1.1161,1.1175,1.117,1.117,1.117,1.117,0,1.0858,1.0874,1.0902,1.0915,1.0935,1.0954,1.0974,1.0989,1.101,1.1028,1.1043,1.1059,1.1084,1.1104,1.1119,1.1143,1.1149,1.1159,1.1163,1.1157,1.1156,1.1166,1.1166,1.117,1.117,1.117,1.117,0,1.0855,1.0874,1.0899,1.0928,1.0935,1.0949,1.0974,1.0988,1.1004,1.1026,1.1033,1.1058,1.1083,1.1104,1.1136,1.1147,1.1172,1.1177,1.1163,1.1166,1.1173,1.1172,1.1194,1.1198,1.119,1.119,1.119,0,1.0859,1.0872,1.0903,1.0915,1.0929,1.0949,1.0963,1.0984,1.0999,1.1028,1.1039,1.1064,1.1085,1.1124,1.1146,1.1171,1.1177,1.1183,1.1181,1.1175,1.1178,1.1177,1.1179,1.1182,1.1182,1.1182,1.1182,0,1.0865,1.0874,1.0894,1.0918,1.0935,1.0954,1.0975,1.0984,1.1009,1.1025,1.105,1.1067,1.11,1.1125,1.1153,1.1169,1.118,1.1183,1.1186,1.1181,1.1173,1.1178,1.1164,1.1182,1.1182,1.1182,1.1182,1.1182,1.0866,1.0879,1.0903,1.0925,1.0942,1.0962,1.0976,1.0995,1.1015,1.1043,1.1055,1.108,1.1106,1.1144,1.1161,1.1182,1.1184,1.1188,1.119,1.1191,1.119,1.117,1.1187,1.1187,1.1187,1.1187,1.1187,0,1.0873,1.0889,1.091,1.0938,1.0956,1.0964,1.0988,1.1002,1.1024,1.1046,1.1067,1.1097,1.1122,1.1147,1.1173,1.1186,1.1192,1.1192,1.1191,1.1195,1.1187,1.1181,1.1187,1.1187,1.1187,1.1187,1.1187,1.1187,1.0879,1.0901,1.0914,1.0946,1.0962,1.0987,1.1,1.1018,1.1036,1.1068,1.1088,1.1104,1.1128,1.1157,1.1181,1.1188,1.1197,1.1196,1.1205,1.1196,1.1196,1.1195,1.119,1.1198,1.1198,1.1212,1.1212,1.1212]},{"header":{"parameterUnit":"m.s-1","parameterCategory":1,"la1":30.2991,"la2":30.254,"lo1":-89.0895,"lo2":-89.0444,"dy":0.0017,"dx":0.0017,"nx":28,"ny":28,"refTime":"2023-10-17T21:00:00:Z","depth":0,"parameterNumber":3,"parameterNumberName":"V-component_of_WINDS"},"data":[0,0,0,0,0,0,0,0,0,0,0,0,0,0,0,0,0,0,0,0,0,0,0,0,0,0,0,0,0,0,0,0,0,0,0,0,0,0,0,0,0,0,0,0,0,0,0,0,0,0,0,0,0,0,0,0,0,0,1.9357,1.9357,0,1.9339,1.9338,1.9338,1.9376,1.9377,1.9378,1.938,1.9355,1.9354,1.9352,0,0,0,0,0,0,0,0,0,0,0,0,0,1.9421,1.942,1.9357,1.9357,1.9357,1.9339,1.9338,1.9338,1.9376,1.9377,1.9379,1.938,1.9356,1.9354,1.9352,0,0,0,0,0,0,0,0,0,0,0,0,0,1.9397,1.942,1.9357,1.9374,1.9375,1.9339,1.9338,1.9338,1.9375,1.9377,1.9379,1.9381,1.9357,1.9354,1.9351,1.9297,0,0,1.9343,1.9342,0,0,0,0,0,0,0,0,1.9398,1.9395,1.9371,1.9372,1.9374,1.9362,1.9352,1.9324,1.9375,1.9375,1.938,1.9382,1.9356,1.9353,1.9345,1.9296,1.9295,1.9343,1.9341,1.934,1.9339,0,0,0,0,0,0,0,1.94,1.9396,1.935,1.9371,1.9372,1.938,1.9379,1.9347,1.9355,1.9375,1.9378,1.9375,1.9357,1.9348,1.9345,1.9295,1.9343,1.9341,1.9339,1.9338,1.9199,1.9197,0,0,0,0,0,0,1.94,1.9397,1.935,1.9349,1.9391,1.9378,1.9376,1.9364,1.9355,1.9356,1.9374,1.9377,1.9352,1.9348,1.9344,1.9279,1.934,1.9338,1.9336,1.9201,1.9198,1.9196,0,0,0,0,0,0,1.9402,1.9396,1.9351,1.9374,1.9369,1.9375,1.936,1.9362,1.9354,1.9354,1.9356,1.9364,1.9353,1.9348,1.9309,1.9279,1.9336,1.9334,1.9203,1.92,1.9197,1.9148,0,0,0,0,0,0,1.9403,1.9396,1.9376,1.9373,1.9367,1.9317,1.9358,1.936,1.9349,1.9354,1.9345,1.9346,1.9354,1.9313,1.9306,1.9276,1.9332,1.9206,1.9202,1.9198,1.9153,1.9144,1.9137,0,0,0,0,0,1.9405,1.9363,1.9375,1.9369,1.9343,1.9315,1.9312,1.9324,1.9347,1.9326,1.9327,1.9346,1.9284,1.9308,1.9301,1.927,1.9208,1.9203,1.9198,1.9156,1.9146,1.9137,0,0,0,0,0,0,1.936,1.9362,1.9376,1.9332,1.9323,1.9322,1.9296,1.9312,1.9296,1.93,1.9315,1.9312,1.9269,1.9266,1.9293,1.9216,1.9249,1.9243,1.922,1.921,1.9202,1.9202,1.933,0,0,0,0,0,1.9346,1.9324,1.9327,1.9287,1.9282,1.929,1.9278,1.9288,1.9279,1.9275,1.9273,1.9262,1.924,1.9225,1.9205,1.9153,1.9151,1.9128,1.912,1.9114,1.9107,1.9078,1.9068,1.9181,1.9181,1.9181,0,0,1.9314,1.9312,1.9298,1.9278,1.9272,1.9248,1.9286,1.9259,1.9241,1.9271,1.9233,1.9231,1.922,1.9174,1.9153,1.917,1.9076,1.9108,1.9103,1.91,1.9072,1.9062,1.9052,1.9177,1.9178,1.9178,0,0,1.9244,1.9241,1.9207,1.9202,1.9194,1.9199,1.9191,1.9187,1.9187,1.9151,1.9172,1.915,1.9113,1.9103,1.9094,1.9021,1.9037,1.9014,1.8971,1.8943,1.8934,1.8926,1.8898,1.8888,1.9008,1.9008,1.9008,0,1.9204,1.917,1.9187,1.9159,1.9148,1.9177,1.9141,1.9135,1.912,1.9111,1.9131,1.9084,1.9078,1.903,1.9012,1.9004,1.8993,1.9014,1.8934,1.8926,1.8919,1.8893,1.8883,1.9005,1.9006,1.9006,1.9006,0,1.9122,1.9098,1.9072,1.9058,1.9045,1.9013,1.9024,1.9009,1.902,1.9023,1.8985,1.898,1.8959,1.8949,1.8959,1.8901,1.8911,1.8932,1.8965,1.8905,1.8881,1.8871,1.9001,1.9002,1.9003,1.9004,0,0,1.902,1.9018,1.9008,1.9002,1.8995,1.8976,1.8946,1.8927,1.8912,1.8902,1.8875,1.8843,1.8862,1.8851,1.8861,1.8837,1.8777,1.886,1.886,1.8843,1.8711,1.8693,1.8682,1.8789,1.8787,1.8786,1.8711,0,1.8949,1.8898,1.8912,1.886,1.8837,1.8864,1.8837,1.8829,1.8832,1.8811,1.8814,1.879,1.8818,1.8812,1.8789,1.8789,1.875,1.8795,1.8762,1.876,1.8761,1.8669,1.8651,1.858,1.8702,1.87,1.8699,0,1.8859,1.8846,1.8791,1.8789,1.878,1.8755,1.8739,1.872,1.8712,1.8715,1.8704,1.8719,1.8687,1.8722,1.8677,1.8707,1.8695,1.8693,1.869,1.8686,1.8724,1.866,1.8558,1.8547,1.8684,1.8685,1.8687,0,1.8788,1.8757,1.872,1.8714,1.8711,1.8693,1.869,1.8684,1.8672,1.8657,1.8649,1.8631,1.862,1.8604,1.8613,1.8639,1.8566,1.8602,1.8566,1.8566,1.8547,1.8548,1.844,1.8543,1.8543,1.8544,1.8544,0,1.8705,1.867,1.8688,1.8665,1.8626,1.8643,1.8604,1.8605,1.8599,1.8575,1.8598,1.8575,1.859,1.8568,1.8575,1.8535,1.8531,1.8531,1.8533,1.8528,1.8527,1.8518,1.8522,1.8541,1.8541,1.8542,1.8542,0,1.8618,1.8629,1.859,1.8591,1.859,1.8562,1.8561,1.8539,1.8544,1.8514,1.8508,1.8515,1.849,1.8499,1.8472,1.8476,1.8426,1.8435,1.8429,1.843,1.8393,1.8395,1.8273,1.8257,1.8372,1.8371,1.837,0,1.8563,1.8537,1.8536,1.8522,1.8519,1.8497,1.8485,1.8501,1.8487,1.8476,1.8455,1.8433,1.8415,1.8374,1.8375,1.8355,1.8362,1.8321,1.8359,1.8354,1.8359,1.8359,1.8356,1.8312,1.8311,1.831,1.8309,0,1.8465,1.8472,1.8454,1.8439,1.8424,1.8412,1.8402,1.8389,1.8405,1.8388,1.8364,1.835,1.8324,1.83,1.8282,1.8278,1.8295,1.8298,1.8288,1.8281,1.8278,1.8277,1.8405,1.83,1.8301,1.8301,1.8302,1.8302,1.8391,1.8368,1.8364,1.8343,1.8338,1.8328,1.8308,1.8311,1.8291,1.8272,1.8282,1.8254,1.8246,1.8223,1.8217,1.8193,1.8209,1.8195,1.8191,1.8187,1.8181,1.8284,1.819,1.8191,1.8191,1.8191,1.8191,0,1.8291,1.829,1.8272,1.8257,1.8241,1.8262,1.8252,1.8236,1.8211,1.8203,1.8187,1.8158,1.8136,1.8137,1.8116,1.8097,1.8104,1.809,1.8091,1.8089,1.8169,1.8179,1.8085,1.8085,1.8085,1.8085,1.8085,1.8085,1.8237,1.82,1.8207,1.8167,1.8166,1.814,1.8132,1.8123,1.8116,1.8084,1.8067,1.8068,1.8063,1.8042,1.8022,1.8023,1.8013,1.7996,1.7999,1.8073,1.8084,1.8094,1.8103,1.7994,1.7994,1.7921,1.792,1.7919]}]]